Time,TemperatureF,DewpointF,PressureIn,WindDirection,WindDirectionDegrees,WindSpeedMPH,WindSpeedGustMPH,Humidity,HourlyPrecipIn,Conditions,Clouds,dailyrainin,SoftwareType,DateUTC
2013-06-19 00:01:00,58.0,45.0,29.43,NE,45,1.0,1.0,61,0.00,,,0.00,,2013-06-19 07:01:00,
2013-06-19 00:11:00,58.0,45.0,29.43,SW,225,0.0,1.0,61,0.00,,,0.00,,2013-06-19 07:11:00,
2013-06-19 00:22:00,57.0,44.0,29.43,SW,225,0.0,2.0,62,0.00,,,0.00,,2013-06-19 07:22:00,
2013-06-19 00:33:00,57.0,45.0,29.43,SW,225,0.0,2.0,65,0.00,,,0.00,,2013-06-19 07:33:00,
2013-06-19 00:43:00,57.0,46.0,29.43,WSW,248,0.0,2.0,66,0.00,,,0.00,,2013-06-19 07:43:00,
2013-06-19 00:53:00,57.0,46.0,29.43,SSE,158,0.0,0.0,66,0.00,,,0.00,,2013-06-19 07:53:00,
2013-06-19 01:01:00,57.0,46.0,29.43,SSE,158,0.0,0.0,66,0.00,,,0.00,,2013-06-19 08:01:00,
2013-06-19 01:11:00,56.0,45.0,29.44,NNW,338,0.0,0.0,67,0.00,,,0.00,,2013-06-19 08:11:00,
2013-06-19 01:22:00,56.0,46.0,29.44,SE,135,0.0,0.0,68,0.00,,,0.00,,2013-06-19 08:22:00,
2013-06-19 01:33:00,56.0,46.0,29.44,ENE,68,1.0,2.0,69,0.00,,,0.00,,2013-06-19 08:33:00,
2013-06-19 01:42:00,56.0,46.0,29.44,ENE,68,1.0,2.0,69,0.00,,,0.00,,2013-06-19 08:42:00,
2013-06-19 01:53:00,56.0,46.0,29.43,SE,135,0.0,2.0,70,0.00,,,0.00,,2013-06-19 08:53:00,
2013-06-19 02:02:00,55.0,45.0,29.42,SW,225,0.0,1.0,70,0.00,,,0.00,,2013-06-19 09:02:00,
2013-06-19 02:11:00,55.0,47.0,29.42,East,90,0.0,0.0,73,0.00,,,0.00,,2013-06-19 09:11:00,
2013-06-19 02:22:00,55.0,47.0,29.42,SSW,203,0.0,1.0,73,0.00,,,0.00,,2013-06-19 09:22:00,
2013-06-19 02:34:00,55.0,47.0,29.42,SSW,203,0.0,1.0,73,0.00,,,0.00,,2013-06-19 09:34:00,
2013-06-19 02:43:00,55.0,47.0,29.42,SSW,203,0.0,1.0,73,0.00,,,0.00,,2013-06-19 09:43:00,
2013-06-19 02:53:00,55.0,47.0,29.41,South,180,0.0,1.0,73,0.00,,,0.00,,2013-06-19 09:53:00,
2013-06-19 03:01:00,55.0,47.0,29.42,East,90,0.0,0.0,74,0.00,,,0.00,,2013-06-19 10:01:00,
2013-06-19 03:11:00,55.0,47.0,29.42,East,90,0.0,0.0,74,0.00,,,0.00,,2013-06-19 10:11:00,
2013-06-19 03:22:00,54.0,46.0,29.41,ESE,113,0.0,0.0,75,0.00,,,0.00,,2013-06-19 10:22:00,
2013-06-19 03:33:00,54.0,47.0,29.41,East,90,0.0,1.0,76,0.00,,,0.00,,2013-06-19 10:33:00,
2013-06-19 03:42:00,54.0,47.0,29.41,South,180,1.0,1.0,77,0.00,,,0.00,,2013-06-19 10:42:00,
2013-06-19 03:52:00,53.0,46.0,29.41,East,90,0.0,1.0,77,0.00,,,0.00,,2013-06-19 10:52:00,
2013-06-19 04:02:00,53.0,46.0,29.42,NNE,23,1.0,3.0,78,0.00,,,0.00,,2013-06-19 11:02:00,
2013-06-19 04:11:00,53.0,46.0,29.42,NNE,23,1.0,3.0,78,0.00,,,0.00,,2013-06-19 11:11:00,
2013-06-19 04:22:00,53.0,46.0,29.41,ESE,113,1.0,1.0,78,0.00,,,0.00,,2013-06-19 11:22:00,
2013-06-19 04:32:00,53.0,46.0,29.41,ESE,113,1.0,1.0,78,0.00,,,0.00,,2013-06-19 11:32:00,
2013-06-19 04:42:00,54.0,47.0,29.42,East,90,1.0,3.0,78,0.00,,,0.00,,2013-06-19 11:42:00,
2013-06-19 04:54:00,54.0,47.0,29.42,SE,135,1.0,2.0,78,0.00,,,0.00,,2013-06-19 11:54:00,
2013-06-19 05:01:00,54.0,47.0,29.42,SE,135,1.0,2.0,78,0.00,,,0.00,,2013-06-19 12:01:00,
2013-06-19 05:11:00,54.0,48.0,29.42,East,90,1.0,3.0,79,0.00,,,0.00,,2013-06-19 12:11:00,
2013-06-19 05:22:00,54.0,48.0,29.41,SE,135,1.0,2.0,79,0.00,,,0.00,,2013-06-19 12:22:00,
2013-06-19 05:34:00,54.0,48.0,29.41,SE,135,1.0,2.0,79,0.00,,,0.00,,2013-06-19 12:34:00,
2013-06-19 05:44:00,54.0,48.0,29.41,ESE,113,1.0,2.0,79,0.00,,,0.00,,2013-06-19 12:44:00,
2013-06-19 05:52:00,54.0,48.0,29.41,ESE,113,1.0,2.0,79,0.00,,,0.00,,2013-06-19 12:52:00,
2013-06-19 06:02:00,54.0,48.0,29.41,ENE,68,2.0,2.0,79,0.00,,,0.00,,2013-06-19 13:02:00,
2013-06-19 06:11:00,54.0,47.0,29.42,East,90,1.0,2.0,78,0.00,,,0.00,,2013-06-19 13:11:00,
2013-06-19 06:22:00,54.0,47.0,29.42,East,90,1.0,2.0,78,0.00,,,0.00,,2013-06-19 13:22:00,
2013-06-19 06:33:00,54.0,47.0,29.41,ESE,113,2.0,3.0,78,0.00,,,0.00,,2013-06-19 13:33:00,
2013-06-19 06:42:00,54.0,47.0,29.41,SE,135,1.0,2.0,78,0.00,,,0.00,,2013-06-19 13:42:00,
2013-06-19 06:53:00,55.0,48.0,29.40,SSW,203,0.0,2.0,77,0.00,,,0.00,,2013-06-19 13:53:00,
2013-06-19 07:01:00,55.0,48.0,29.42,East,90,1.0,1.0,77,0.00,,,0.00,,2013-06-19 14:01:00,
2013-06-19 07:11:00,55.0,48.0,29.42,East,90,1.0,1.0,77,0.00,,,0.00,,2013-06-19 14:11:00,
2013-06-19 07:22:00,55.0,48.0,29.42,ENE,68,1.0,3.0,76,0.00,,,0.00,,2013-06-19 14:22:00,
2013-06-19 07:33:00,55.0,47.0,29.42,East,90,1.0,2.0,75,0.00,,,0.00,,2013-06-19 14:33:00,
2013-06-19 07:43:00,55.0,47.0,29.43,SE,135,1.0,2.0,75,0.00,,,0.00,,2013-06-19 14:43:00,
2013-06-19 07:52:00,55.0,47.0,29.43,SE,135,1.0,2.0,75,0.00,,,0.00,,2013-06-19 14:52:00,
2013-06-19 08:01:00,56.0,47.0,29.43,SW,225,1.0,2.0,73,0.00,,,0.00,,2013-06-19 15:01:00,
2013-06-19 08:11:00,56.0,47.0,29.43,SE,135,1.0,2.0,73,0.00,,,0.00,,2013-06-19 15:11:00,
2013-06-19 08:22:00,56.0,47.0,29.43,East,90,1.0,2.0,73,0.00,,,0.00,,2013-06-19 15:22:00,
2013-06-19 08:33:00,56.0,47.0,29.43,SE,135,1.0,3.0,73,0.00,,,0.00,,2013-06-19 15:33:00,
2013-06-19 08:42:00,56.0,47.0,29.43,SE,135,1.0,2.0,73,0.00,,,0.00,,2013-06-19 15:42:00,
2013-06-19 08:52:00,56.0,47.0,29.43,NNW,338,1.0,2.0,72,0.00,,,0.00,,2013-06-19 15:52:00,
2013-06-19 09:01:00,56.0,47.0,29.43,NNW,338,1.0,2.0,72,0.00,,,0.00,,2013-06-19 16:01:00,
2013-06-19 09:11:00,57.0,47.0,29.43,ESE,113,1.0,3.0,70,0.00,,,0.00,,2013-06-19 16:11:00,
2013-06-19 09:21:00,57.0,47.0,29.43,SE,135,2.0,3.0,70,0.00,,,0.00,,2013-06-19 16:21:00,
2013-06-19 09:33:00,57.0,47.0,29.43,SE,135,2.0,3.0,70,0.00,,,0.00,,2013-06-19 16:33:00,
2013-06-19 09:43:00,58.0,47.0,29.43,East,90,2.0,3.0,67,0.00,,,0.00,,2013-06-19 16:43:00,
2013-06-19 09:52:00,58.0,47.0,29.43,SE,135,1.0,3.0,67,0.00,,,0.00,,2013-06-19 16:52:00,
2013-06-19 10:02:00,59.0,47.0,29.44,SSW,203,3.0,5.0,65,0.00,,,0.00,,2013-06-19 17:02:00,
2013-06-19 10:11:00,59.0,47.0,29.44,SW,225,3.0,5.0,64,0.00,,,0.00,,2013-06-19 17:11:00,
2013-06-19 10:22:00,59.0,46.0,29.44,WSW,248,3.0,5.0,63,0.00,,,0.00,,2013-06-19 17:22:00,
2013-06-19 10:33:00,59.0,46.0,29.44,WSW,248,3.0,5.0,63,0.00,,,0.00,,2013-06-19 17:33:00,
2013-06-19 10:43:00,60.0,47.0,29.43,West,270,3.0,9.0,61,0.00,,,0.00,,2013-06-19 17:43:00,
2013-06-19 10:53:00,62.0,47.0,29.43,South,180,2.0,3.0,58,0.00,,,0.00,,2013-06-19 17:53:00,
2013-06-19 11:01:00,62.0,47.0,29.43,South,180,2.0,3.0,58,0.00,,,0.00,,2013-06-19 18:01:00,
2013-06-19 11:11:00,63.0,47.0,29.43,SW,225,3.0,6.0,55,0.00,,,0.00,,2013-06-19 18:11:00,
2013-06-19 11:23:00,62.0,46.0,29.43,West,270,3.0,6.0,55,0.00,,,0.00,,2013-06-19 18:23:00,
2013-06-19 11:33:00,62.0,47.0,29.43,WNW,293,2.0,4.0,57,0.00,,,0.00,,2013-06-19 18:33:00,
2013-06-19 11:44:00,62.0,46.0,29.43,SSW,203,2.0,7.0,56,0.00,,,0.00,,2013-06-19 18:44:00,
2013-06-19 11:52:00,63.0,48.0,29.43,WSW,248,2.0,7.0,57,0.00,,,0.00,,2013-06-19 18:52:00,
2013-06-19 12:01:00,64.0,47.0,29.43,West,270,4.0,6.0,53,0.00,,,0.00,,2013-06-19 19:01:00,
2013-06-19 12:11:00,65.0,47.0,29.43,West,270,3.0,6.0,53,0.00,,,0.00,,2013-06-19 19:11:00,
2013-06-19 12:22:00,66.0,46.0,29.43,SW,225,2.0,8.0,49,0.00,,,0.00,,2013-06-19 19:22:00,
2013-06-19 12:43:00,68.0,46.0,29.43,SW,225,2.0,4.0,45,0.00,,,0.00,,2013-06-19 19:43:00,
2013-06-19 13:22:00,69.0,45.0,29.43,South,180,3.0,5.0,42,0.00,,,0.00,,2013-06-19 20:22:00,
2013-06-19 13:42:00,69.0,44.0,29.43,SSW,203,2.0,5.0,41,0.00,,,0.00,,2013-06-19 20:42:00,
2013-06-19 13:52:00,70.0,45.0,29.43,SSW,203,2.0,4.0,41,0.00,,,0.00,,2013-06-19 20:52:00,
2013-06-19 14:02:00,69.0,44.0,29.43,WSW,248,2.0,4.0,41,0.00,,,0.00,,2013-06-19 21:02:00,
2013-06-19 14:11:00,69.0,44.0,29.43,WSW,248,2.0,4.0,41,0.00,,,0.00,,2013-06-19 21:11:00,
2013-06-19 14:22:00,65.0,48.0,29.44,NE,45,1.0,2.0,55,0.00,,,0.00,,2013-06-19 21:22:00,
2013-06-19 14:33:00,65.0,48.0,29.44,NE,45,1.0,2.0,55,0.00,,,0.00,,2013-06-19 21:33:00,
2013-06-19 14:44:00,68.0,52.0,29.44,ESE,113,1.0,2.0,56,0.00,,,0.00,,2013-06-19 21:44:00,
2013-06-19 14:52:00,70.0,53.0,29.44,SSW,203,1.0,2.0,54,0.00,,,0.00,,2013-06-19 21:52:00,
2013-06-19 15:01:00,68.0,49.0,29.45,NNW,338,0.0,2.0,51,0.00,,,0.00,,2013-06-19 22:01:00,
2013-06-19 15:11:00,68.0,48.0,29.45,SW,225,0.0,2.0,49,0.00,,,0.00,,2013-06-19 22:11:00,
2013-06-19 15:22:00,67.0,48.0,29.45,East,90,2.0,3.0,51,0.00,,,0.00,,2013-06-19 22:22:00,
2013-06-19 15:34:00,67.0,49.0,29.45,East,90,2.0,3.0,52,0.00,,,0.00,,2013-06-19 22:34:00,
2013-06-19 15:42:00,67.0,49.0,29.45,West,270,1.0,2.0,53,0.00,,,0.00,,2013-06-19 22:42:00,
2013-06-19 15:53:00,65.0,47.0,29.45,NNW,338,1.0,2.0,52,0.00,,,0.00,,2013-06-19 22:53:00,
2013-06-19 16:01:00,65.0,48.0,29.45,WSW,248,0.0,0.0,55,0.00,,,0.00,,2013-06-19 23:01:00,
2013-06-19 16:11:00,65.0,49.0,29.45,West,270,0.0,0.0,56,0.00,,,0.00,,2013-06-19 23:11:00,
2013-06-19 16:22:00,65.0,49.0,29.45,West,270,0.0,0.0,56,0.00,,,0.00,,2013-06-19 23:22:00,
2013-06-19 16:33:00,66.0,51.0,29.45,WNW,293,0.0,0.0,58,0.00,,,0.00,,2013-06-19 23:33:00,
2013-06-19 16:43:00,66.0,49.0,29.45,WNW,293,0.0,0.0,54,0.00,,,0.00,,2013-06-19 23:43:00,
2013-06-19 16:52:00,66.0,49.0,29.45,WNW,293,0.0,0.0,54,0.00,,,0.00,,2013-06-19 23:52:00,
2013-06-19 17:01:00,65.0,48.0,29.44,East,90,0.0,3.0,55,0.00,,,0.00,,2013-06-20 00:01:00,
2013-06-19 17:11:00,66.0,49.0,29.46,SW,225,0.0,2.0,54,0.00,,,0.00,,2013-06-20 00:11:00,
2013-06-19 17:22:00,66.0,49.0,29.47,SSW,203,1.0,5.0,54,0.00,,,0.00,,2013-06-20 00:22:00,
2013-06-19 17:33:00,65.0,49.0,29.47,West,270,1.0,2.0,56,0.00,,,0.00,,2013-06-20 00:33:00,
2013-06-19 17:43:00,65.0,48.0,29.46,East,90,0.0,1.0,54,0.00,,,0.00,,2013-06-20 00:43:00,
2013-06-19 17:52:00,65.0,47.0,29.46,ESE,113,0.0,1.0,53,0.00,,,0.00,,2013-06-20 00:52:00,
2013-06-19 18:01:00,65.0,48.0,29.46,ESE,113,1.0,2.0,54,0.00,,,0.00,,2013-06-20 01:01:00,
2013-06-19 18:11:00,65.0,48.0,29.46,ESE,113,1.0,1.0,54,0.00,,,0.00,,2013-06-20 01:11:00,
2013-06-19 18:22:00,65.0,47.0,29.46,North,0,1.0,2.0,53,0.00,,,0.00,,2013-06-20 01:22:00,
2013-06-19 18:33:00,64.0,47.0,29.46,East,90,0.0,1.0,53,0.00,,,0.00,,2013-06-20 01:33:00,
2013-06-19 18:44:00,64.0,47.0,29.47,NW,315,0.0,1.0,55,0.00,,,0.00,,2013-06-20 01:44:00,
2013-06-19 18:52:00,64.0,47.0,29.47,NW,315,0.0,1.0,55,0.00,,,0.00,,2013-06-20 01:52:00,
2013-06-19 19:02:00,63.0,48.0,29.47,East,90,1.0,2.0,58,0.00,,,0.00,,2013-06-20 02:02:00,
2013-06-19 19:11:00,63.0,48.0,29.47,ESE,113,2.0,4.0,59,0.00,,,0.00,,2013-06-20 02:11:00,
2013-06-19 19:23:00,63.0,48.0,29.47,South,180,2.0,4.0,59,0.00,,,0.00,,2013-06-20 02:23:00,
2013-06-19 19:33:00,63.0,49.0,29.47,SE,135,1.0,3.0,60,0.00,,,0.00,,2013-06-20 02:33:00,
2013-06-19 19:43:00,63.0,49.0,29.47,SE,135,1.0,3.0,60,0.00,,,0.00,,2013-06-20 02:43:00,
2013-06-19 19:52:00,62.0,49.0,29.48,East,90,2.0,4.0,62,0.00,,,0.00,,2013-06-20 02:52:00,
2013-06-19 20:02:00,62.0,49.0,29.46,East,90,2.0,4.0,62,0.00,,,0.00,,2013-06-20 03:02:00,
2013-06-19 20:11:00,61.0,49.0,29.46,East,90,2.0,3.0,65,0.00,,,0.00,,2013-06-20 03:11:00,
2013-06-19 20:22:00,61.0,50.0,29.50,SE,135,2.0,2.0,68,0.00,,,0.00,,2013-06-20 03:22:00,
2013-06-19 20:32:00,61.0,51.0,29.50,ESE,113,3.0,3.0,69,0.00,,,0.00,,2013-06-20 03:32:00,
2013-06-19 20:43:00,61.0,51.0,29.50,ESE,113,3.0,3.0,69,0.00,,,0.00,,2013-06-20 03:43:00,
2013-06-19 20:53:00,59.0,51.0,29.49,East,90,1.0,3.0,76,0.00,,,0.00,,2013-06-20 03:53:00,
2013-06-19 21:01:00,59.0,52.0,29.48,ESE,113,1.0,2.0,78,0.00,,,0.00,,2013-06-20 04:01:00,
2013-06-19 21:11:00,59.0,52.0,29.48,ESE,113,1.0,2.0,78,0.00,,,0.00,,2013-06-20 04:11:00,
2013-06-19 21:22:00,59.0,53.0,29.48,East,90,2.0,3.0,80,0.00,,,0.00,,2013-06-20 04:22:00,
2013-06-19 21:33:00,59.0,53.0,29.48,East,90,2.0,4.0,80,0.00,,,0.00,,2013-06-20 04:33:00,
2013-06-19 21:43:00,58.0,52.0,29.49,East,90,1.0,2.0,79,0.00,,,0.00,,2013-06-20 04:43:00,
2013-06-19 21:53:00,58.0,52.0,29.49,ESE,113,1.0,2.0,81,0.00,,,0.00,,2013-06-20 04:53:00,
2013-06-19 22:01:00,58.0,52.0,29.49,ESE,113,1.0,2.0,81,0.00,,,0.00,,2013-06-20 05:01:00,
2013-06-19 22:11:00,57.0,52.0,29.49,NNE,23,1.0,3.0,82,0.00,,,0.00,,2013-06-20 05:11:00,
2013-06-19 22:22:00,57.0,52.0,29.49,SE,135,1.0,4.0,82,0.00,,,0.00,,2013-06-20 05:22:00,
2013-06-19 22:33:00,57.0,51.0,29.49,WSW,248,0.0,1.0,81,0.00,,,0.00,,2013-06-20 05:33:00,
2013-06-19 22:43:00,57.0,51.0,29.49,South,180,0.0,0.0,80,0.00,,,0.00,,2013-06-20 05:43:00,
2013-06-19 22:52:00,57.0,50.0,29.49,East,90,0.0,3.0,78,0.00,,,0.00,,2013-06-20 05:52:00,
2013-06-19 23:01:00,57.0,49.0,29.51,West,270,0.0,3.0,75,0.00,,,0.00,,2013-06-20 06:01:00,
2013-06-19 23:11:00,57.0,48.0,29.51,South,180,1.0,2.0,73,0.00,,,0.00,,2013-06-20 06:11:00,
2013-06-19 23:22:00,57.0,47.0,29.49,SE,135,1.0,2.0,70,0.00,,,0.00,,2013-06-20 06:22:00,
2013-06-19 23:33:00,57.0,47.0,29.49,SE,135,1.0,2.0,70,0.00,,,0.00,,2013-06-20 06:33:00,
2013-06-19 23:43:00,57.0,47.0,29.49,ESE,113,0.0,2.0,70,0.00,,,0.00,,2013-06-20 06:43:00,
2013-06-19 23:53:00,57.0,47.0,29.49,East,90,0.0,1.0,70,0.00,,,0.00,,2013-06-20 06:53:00,